{"data":{"norad_id":53161,"intl_designator":"2022-083AF","name":"STARLINK-4055","alt_names":[],"object_type":"PAYLOAD","status":"ACTIVE","operator":null,"country":"US","launch_date":"2022-07-17","launch_site_code":"AFETR","launch_vehicle":null,"mission":null,"orbit_class":"UNKNOWN","rcs_meters":null,"size_class":null,"mass_kg":null,"dimensions":null,"purposes":["comms"],"wikipedia_slug":null,"has_3d_model":false,"image_url":null,"decayed_at":null,"tle_current":{"epoch":"2026-09-20T00:06:27.923040Z","epoch_age_seconds":115031,"freshness":"FRESH","line1":"1 53161U 22083AF  26263.00448985 -.00007674  00000+0 -20921-3 0  9990","line2":"2 53161  53.1601 358.7907 0001444  92.7258 267.3910 15.35411236230878","mean_motion":15.35411236,"eccentricity":0.0001444,"inclination_deg":53.1601,"raan_deg":358.7907,"arg_perigee_deg":92.7258,"mean_anomaly_deg":267.391,"bstar":-0.00020921,"rev_number":23087,"period_min":93.785949082373,"perigee_km":458.71189986833,"apogee_km":460.68666698698,"semimajor_km":6837.8362834277,"source":"CELESTRAK","updated_at":"2026-09-20T09:00:40.183653Z"}}}